7 * 24
多渠道服务支持
STARLINK-34768是由美国发射的星链卫星,于2025年8月4日发射入轨,隶属于SpaceX公司的星链星座项目。星链项目旨在构建全球卫星互联网星座,为全球偏远地区、海洋空域等场景提供低延迟高速网络接入服务,该卫星的入轨进一步扩充了星链星座的在轨规模,推进了项目全球覆盖的建设进程。
美国
(US)
| 数据来源 | 国际轨道数据 |
| 星历时间: | 2026-09-12T13:11:37+0800 20小时前 查看轨道信息 |
| 半长轴: | 6840.789km |
| 偏心率: | 0.0001831 |
| 轨道倾角: | 53.157° |
| 近地点辐角 | 101.156° |
| 升交点赤经 | 232.747° |
| 平近点角 | 258.964° |
| 近地点: | 461.399km |
| 远地点: | 463.905km |
| 周期: | 93.847分钟 |
| 每日圈数: | 15.344173 |